Location: Huppendorf
(49.9333°N, 11.1500°E)
Time: 15:39:59
(UTC+00:00)

Cosmos 1703 Rocket - Pass Details

Date: 27 February 2020
Orbit: 606 x 632 km, 82.5° (Epoch: 27 March)

Event Time Altitude Azimuth Distance (km) Brightness Sun altitude
Rises 17:20:05 0° 356° (N) 2,928 7.0 -5.1°
Reaches altitude 10° 17:22:29 10° 5° (N) 2,019 6.1 -5.5°
Maximum altitude 17:26:37 36° 72° (ENE) 1,016 4.2 -6.1°
Drops below altitude 10° 17:30:44 10° 139° (SE) 2,013 5.9 -6.8°
Sets 17:33:07 0° 148° (SSE) 2,917 6.7 -7.2°
